Regional Weather Roundup
Issued by NWS New Orleans/Baton Rouge, LA

Home | Current Version | Previous Version | Text Only | Print | Product List | Glossary On
Versions: 1 2 3 4 5 6 7 8 9 10 11 12 13 14 15 16 17 18 19 20 21 22 23 24 25 26 27 28 29 30 31 32 33 34 35 36 37 38 39 40 41 42 43 44 45 46 47 48 49 50
543
ASUS44 KLIX 210701
RWRLIX
NEW ORLEANS REGIONAL WEATHER ROUNDUP
NATIONAL WEATHER SERVICE NEW ORLEANS LA
200 AM CDT SUN SEP 21 2014

NOTE: "FAIR" INDICATES FEW OR NO CLOUDS BELOW 12,000 FEET WITH NO
      SIGNIFICANT WEATHER AND/OR OBSTRUCTIONS TO VISIBILITY.
      SKY/WX - SKY CONDITION AND SIGNIFICANT WEATHER.
      TMP - AIR TEMPERATURE.     DP    - DEWPOINT TEMPERATURE.
      RH  - RELATIVE HUMIDITY.   PRES  - PRESSURE.
      HI  - HEAT INDEX.          WCI   - WIND CHILL INDEX.

*  THESE STATIONS ARE NOT NWS OR FAA STATIONS AND ARE NOT UNDER
   NWS QUALITY CONTROL.

LAZ038-040-048-061>063-065>067-069-210800-
SOUTHEAST LOUISIANA

CITY           SKY/WX    TMP DP  RH WIND       PRES   REMARKS
N.O. AUDUBON     N/A     75  72  88 MISG        N/A
N.O. INTL ARPT PTCLDY    78  68  71 NE6       29.97S
N.O. LAKEFRONT CLEAR     80  70  71 NE13      29.97F
N.O. DOWNTOWN*   N/A     79  66  65 NE3       29.97S
SLIDELL        CLEAR     69  67  93 N5        29.98S
BATON ROUGE    CLEAR     71  69  93 CALM      29.98F
BOOTHVILLE     CLEAR     79  72  79 E7        29.94F
BELLE CHASSE   CLEAR     73  68  84 NE5       29.96S
BOGALUSA*        N/A     68  65  89 N3        30.01S
GALLIANO*      NOT AVBL
NEW ROADS*       N/A     71  70  98 CALM      29.99S FOG
GONZALES*        N/A     70  70 100 CALM      29.97F FOG
HAMMOND*       NOT AVBL
HOUMA*         CLEAR     73  67  82 CALM      29.96S
PORT FOURCHON* MOSUNNY   81  70  69 E12       29.97S

$$

MSZ070-080>082-210800-
SOUTHERN MISSISSIPPI

CITY           SKY/WX    TMP DP  RH WIND       PRES   REMARKS
MCCOMB         CLEAR     70  67  90 VRB3      30.01S
GULFPORT       CLEAR     71  66  84 N5        29.98R
BILOXI         CLEAR     71  67  87 NE7       29.98S
PASCAGOULA     PTCLDY    68  66  93 N5        29.98S

$$

COASTAL OBSERVATIONS
LAKE AND NEARSHORE STATIONS

STATION/POSITION TIME  TEMP    WIND        PRES    WAVE
                       AIR SEA DIR/SP/G            HT/PER
                 (UTC) (F)     (DEG/KT/KT) (MB)    (FT/S)
PASCAGOULA       0600   74      20/  6/  8 1014.3
WAVELAND YACHT   0600   75      40/  9/ 11 1014.4
GRAND ISLE       0600   80 82   90/  9/ 13 1014.4
SOUTHWEST PASS   0600   81 89   80/ 16/ 19 1013.6
NEW CANAL        0600   80 81   80/  6/  9 1015.1
SHELL BEACH      0600   80 78   60/  9/ 11 1014.3

OFFSHORE STATIONS

STATION/POSITION TIME  TEMP    WIND        PRES    WAVE
                       AIR SEA DIR/SP/G            HT/PER
                 (UTC) (F)     (DEG/KT/KT) (MB)    (FT/S)
64 S DAUPHIN ISL 0551   81 84   80/ 16/ 17 1013.6    4/ 7

$$




USA.gov is the U.S. government's official web portal to all federal, state and local government web resources and services.